Погода в Солдато-Александровском

Россия / Ставропольский край     44°15′46″N   43°45′17″E
темп.,
°C
ветер,
м/с
пор.,
м/с
влажн.,
%
обл.,
%
осадки,
мм/ч
давл.,
гПа
погр.,
м
29 июня, ср
ср2900:00+18юз018168 0.1 101311
03:00+17ююв11815 0.1 101311
06:00+19юз11773 0.0 101360
09:00+24всв11550 0.0 1013641
12:00+29св11410 0.0 10121606
15:00+30св013894 0.0 10112180
18:00+29ююз2248100 0.0 1011102
21:00+24юз345385 0.0 101268
30 июня, чт
чт3000:00+23всв365484 0.0 1012173
03:00+19всв35775 0.0 101282
06:00+20в497552 0.0 1013425
09:00+25вюв56542 0.0 10131097
12:00+28в56432 0.0 10111738
15:00+29в554099 0.0 10102309
18:00+26всв4851100 0.0 1010230
21:00+24в4848100 0.0 1011264
1 июля, пт
пт100:00+21вюв49498 0.0 1011304
03:00+17вюв236548 0.3 101267
06:00+18ю136699 0.1 1012134
09:00+21всв2351100 0.1 1012514
12:00+22св344894 0.0 1012722
15:00+26ссв3338100 0.0 10111579
18:00+21юз3466100 0.1 1012157
21:00+18ююз4678100 0.3 1013151
2 июля, сб
сб200:00+17ююз3580100 0.1 1012107
03:00+16зюз228614 0.1 101222
06:00+17сз357888 0.0 1013145
09:00+23с45484 0.0 10131106
12:00+26с44360 0.0 10142001
15:00+27ссз55320 0.0 10142585
18:00+24с45330 0.0 1015677
21:00+17с34371 0.0 101741
3 июля, вс
вс300:00+15зсз224836 0.0 101721
03:00+16зсз234856 0.0 101758
06:00+15сз23550 0.0 101794
09:00+22ссз22390 0.0 1017771
12:00+26сз33310 0.0 10162036
15:00+27сз32260 0.0 10152372
18:00+26зсз22300 0.0 10151098
21:00+19сз224166 0.0 101611